TimeCST,TemperatureF,Dew PointF,Humidity,Sea Level PressureIn,VisibilityMPH,Wind Direction,Wind SpeedMPH,Gust SpeedMPH,PrecipitationIn,Events,Conditions,WindDirDegrees,DateUTC
12:51 AM,45.0,27.0,49,30.15,9.0,NW,18.4,25.3,N/A,,Clear,310,2013-01-20 06:51:00
1:51 AM,43.0,24.1,47,30.19,10.0,NW,21.9,28.8,N/A,,Clear,320,2013-01-20 07:51:00
2:51 AM,39.9,23.0,51,30.21,10.0,NW,13.8,24.2,N/A,,Clear,310,2013-01-20 08:51:00
3:51 AM,37.0,18.0,46,30.23,10.0,NW,17.3,26.5,N/A,,Clear,320,2013-01-20 09:51:00
4:51 AM,32.0,24.1,73,30.27,10.0,North,11.5,-,N/A,,Clear,360,2013-01-20 10:51:00
5:51 AM,30.0,18.0,61,30.30,10.0,NNW,8.1,-,N/A,,Clear,340,2013-01-20 11:51:00
6:51 AM,28.0,12.9,53,30.32,10.0,NNW,10.4,-,N/A,,Partly Cloudy,340,2013-01-20 12:51:00
7:51 AM,28.0,10.9,49,30.34,10.0,North,9.2,-,N/A,,Scattered Clouds,10,2013-01-20 13:51:00
8:51 AM,28.9,9.0,43,30.37,10.0,North,11.5,-,N/A,,Scattered Clouds,360,2013-01-20 14:51:00
9:51 AM,28.9,10.0,45,30.38,10.0,NNW,10.4,-,N/A,,Mostly Cloudy,340,2013-01-20 15:51:00
11:51 AM,32.0,10.0,40,30.34,10.0,North,10.4,-,N/A,,Mostly Cloudy,360,2013-01-20 17:51:00
12:51 PM,32.0,10.0,40,30.30,10.0,NE,6.9,-,N/A,,Mostly Cloudy,40,2013-01-20 18:51:00
1:51 PM,33.1,10.9,40,30.33,10.0,NNW,8.1,-,N/A,,Mostly Cloudy,340,2013-01-20 19:51:00
2:51 PM,34.0,10.9,38,30.32,10.0,North,5.8,-,N/A,,Mostly Cloudy,10,2013-01-20 20:51:00
3:51 PM,32.0,10.0,40,30.33,10.0,North,4.6,-,N/A,,Mostly Cloudy,360,2013-01-20 21:51:00
4:51 PM,30.9,10.9,43,30.34,10.0,NNE,6.9,-,N/A,,Mostly Cloudy,20,2013-01-20 22:51:00
5:51 PM,28.9,12.0,49,30.34,10.0,North,8.1,-,N/A,,Mostly Cloudy,360,2013-01-20 23:51:00
6:51 PM,30.0,10.9,45,30.33,10.0,North,8.1,-,N/A,,Overcast,10,2013-01-21 00:51:00
7:51 PM,28.0,12.0,51,30.34,10.0,North,8.1,-,N/A,,Mostly Cloudy,10,2013-01-21 01:51:00
8:51 PM,27.0,12.0,53,30.34,10.0,North,10.4,-,N/A,,Overcast,360,2013-01-21 02:51:00
9:51 PM,27.0,12.9,56,30.35,10.0,North,9.2,-,N/A,,Overcast,360,2013-01-21 03:51:00
10:51 PM,26.1,12.0,55,30.34,10.0,NNW,9.2,-,N/A,,Overcast,340,2013-01-21 04:51:00
11:51 PM,25.0,12.0,58,30.34,10.0,NW,10.4,-,N/A,,Mostly Cloudy,310,2013-01-21 05:51:00